Location: Holkham
(52.9500°N, 0.8167°E)
Time: 11:07:32
(UTC+00:00)

Cosmos 2221 - Pass Details

Date: 21 December 2025
Orbit: 569 x 589 km, 82.5° (Epoch: 24 January)

Event Time Altitude Azimuth Distance (km) Brightness Sun altitude
Rises 17:16:44 0° 164° (SSE) 2,781 6.0 -13.0°
Reaches altitude 10° 17:19:04 10° 154° (SSE) 1,884 5.0 -13.4°
Maximum altitude 17:22:46 32° 91° (E) 997 3.1 -13.9°
Enters shadow 17:24:48 21° 44° (NE) 1,328 3.7 -14.2°
